Location: Caracas
(10.5033°N, 66.8422°W)
Time: 17:56:42
(UTC-04:00)

Hubble Space Telescope - Pass Details

Date: 14 November 2017
Orbit: 537 x 541 km, 28.5° (Epoch: 22 November)

Event Time Altitude Azimuth Distance (km) Brightness Sun altitude
Exits shadow 04:29:51 35° 66° (ENE) 866 2.1 -27.3°
Drops below altitude 10° 04:32:19 10° 64° (ENE) 1,776 4.0 -26.7°
Sets 04:34:35 0° 63° (ENE) 2,666 5.0 -26.2°
